Regional Weather Roundup
Issued by NWS

Home | Current Version | Previous Version | Text Only | Print | Product List | Glossary On
Versions: 1 2 3 4 5 6 7 8 9 10 11 12 13 14 15 16 17 18 19 20 21 22 23 24 25 26 27 28 29 30 31 32 33 34 35 36 37 38 39 40 41 42 43 44 45 46 47 48 49 50
000
ASUS44 KLIX 201310
RWRLA
LOUISIANA WEATHER ROUNDUP
NATIONAL WEATHER SERVICE NEW ORLEANS LA
800 AM CDT SUN APR 20 2014

NOTE: "FAIR" INDICATES FEW OR NO CLOUDS BELOW 12,000 FEET WITH NO
      SIGNIFICANT WEATHER AND/OR OBSTRUCTIONS TO VISIBILITY.
      SKY/WX - SKY CONDITION AND SIGNIFICANT WEATHER.
      TMP - AIR TEMPERATURE.    DP   - DEWPOINT TEMPERATURE.
      RH  - RELATIVE HUMIDITY.  PRES - PRESSURE.
      HX  - HEAT INDEX.         WCI  - WIND CHILL INDEX.

*  THESE STATIONS ARE NOT NWS OR FAA STATIONS AND ARE NOT UNDER
   NWS QUALITY CONTROL.

LAZ040-048-061>063-065-066-069-201400-
SOUTHEAST LOUISIANA

CITY           SKY/WX    TMP DP  RH WIND       PRES   REMARKS
N.O. AUDUBON     N/A     68  58  71 MISG        N/A
N.O. INTL ARPT MOSUNNY   66  58  75 E3        30.16R
N.O. LAKEFRONT SUNNY     65  60  84 E12       30.17R
N.O. DOWNTOWN* FAIR      66  55  68 SE3       30.17R
SLIDELL        SUNNY     60  56  86 CALM      30.17R
BATON ROUGE    SUNNY     62  53  72 NE6       30.17R
BOOTHVILLE     SUNNY     63  60  90 E5        30.17R
BELLE CHASSE   SUNNY     64  58  80 CALM      30.16R
BOGALUSA*        N/A     58  54  86 CALM      30.20S
GALLIANO*      SUNNY     62  60  92 N3        30.15S
NEW ROADS*     FAIR      58  56  92 CALM      30.18R
GONZALES*      FAIR      61  55  79 CALM      30.16S
HAMMOND*       SUNNY     61  52  72 CALM      30.18S
HOUMA*         NOT AVBL
PORT FOURCHON* SUNNY     68  63  83 NE6       30.17R

$$

LAZ041-044-053-054-201400-
SOUTHWEST LOUISIANA

CITY           SKY/WX    TMP DP  RH WIND       PRES   REMARKS
LAKE CHARLES   MOSUNNY   61  59  93 CALM      30.18R
LAFAYETTE      SUNNY     63  57  81 CALM      30.17R
PATTERSON      SUNNY     61  57  88 CALM      30.19R
SALT POINT       N/A     65  60  84 CALM      30.16R
NEW IBERIA     SUNNY     62  58  86 CALM      30.18R
CHENAULT AIRPK SUNNY     61  57  88 CALM      30.18R

$$

LAZ027-028-201400-
CENTRAL LOUISIANA

CITY           SKY/WX    TMP DP  RH WIND       PRES   REMARKS
FORT POLK      MOSUNNY   61  58  90 N3        30.18R
ALEXANDRIA INT SUNNY     59  57  93 CALM      30.17R
ALEXANDRIA     SUNNY     56  53  90 CALM      30.18R

$$

LAZ001-002-201400-
NORTHWEST LOUISIANA

CITY           SKY/WX    TMP DP  RH WIND       PRES   REMARKS
SHREVEPORT     PTSUNNY   60  55  83 CALM      30.17R
BARKSDALE AFB  SUNNY     59  56  91 S1        30.18R
DTN SHREVEPORT SUNNY     60  56  86 CALM      30.18R

$$

LAZ014-016-201400-
NORTHEAST LOUISIANA

CITY           SKY/WX    TMP DP  RH WIND       PRES   REMARKS
MONROE         SUNNY     59  58  96 CALM      30.20R
TALLULAH       SUNNY     61  58  90 CALM      30.19R

$$




USA.gov is the U.S. government's official web portal to all federal, state and local government web resources and services.